Showing default

PELICAN-1 3001, 58296

Orbit data source: Space-Track

PELICAN-1 3001, 58296 is a payload satellite owned by Planet (US) in SSO that was launched on Sat, 11 Nov 2023 UTC via an FALCON 9 launch vehicle from the Air Force Western Test Range (AFWTR). Payload-class satellites include a variety of spacecraft equipped with specific instruments for various scientific and technological missions. These include communications satellites like Starlink; space stations such as the ISS; scientific satellites like the Hubble; Earth observation satellites from companies like Planet Labs, Umbra, and HawkEye 360; GPS; miniature CubeSats for education and research; and military/defense satellites.

Loading next visibility...
Identifier
58296, 2023-174AS
Orbit
SSO
Country
Flag of USUS
Related business
Manufacturer
Planet
Mission
Operational Commercial Imaging
Bus & Motor
PELICAN, XE AOCS
Mass
160 kg wet, 146 kg dry
Launch date (UTC)
2023-11-11 (3 years ago)
Launch vehicle
FALCON 9
Launch site
Air Force Western Test Range (AFWTR)
Object type
Payload
Rocket body
Debris
Shape & HBR
Box + 2 Pan, 1.0 m
Radar Cross Section
1.955 m², Large (>1 m²)

Expand to show TLE details & history
Last TLE update: 18 hours ago

TLE from 18 hours ago
0 PELICAN-1 3001
1 58296U 23174AS  26132.81256035  .00035352  00000-0  26479-3 0  9990
2 58296  97.4005 230.9688 0000376  46.7579 313.3716 15.72585493140601
Epoch: 2026-05-12T19:30Z
TLE epoch observation values (Epoch: 2026-05-12T19:30:05.214Z)
Latitude
0.00001°
Longitude
67.86551°
Altitude
354.498 km
Speed
7.696 km/s
True Right ascension
15h 23m 52s
True Declination
0° 00' 00"
Sunlit
Object was in full shadow at epoch
Visualization orbit readout
Latitude
Unknown
Longitude
Unknown
Altitude
Unknown
Speed
Unknown
Apparent Right ascension
Unknown
Apparent Declination
Unknown
Sunlit
N/A
Visualization observer readout
Local Sidereal Time
21:41:34
Azimuth
Unknown
Elevation
Unknown
Doppler factor
Unknown
Orbital elements
Apogee altitude
348.66 km
Perigee altitude
348.154 km
Semi-major axis
6,726.544 km
Eccentricity
0.00004
Inclination
97.4005°
RAAN
230.9688°
Arg. of periapsis
46.7579°
True anomaly
313.36847°
Mean anomaly
313.3716°
Eccentric anomaly
313.37003°
Mean motion
3.93419 °/min
Orbital period
91.51 mins
BSTAR
0.00026479
Loading maneuver chart data...
Computing Atmospheric mass density...
Loading historical data...
Loading historical data...
Loading historical data...
Loading historical data...
Loading historical data...
Loading historical data...
Loading historical data...

Documentation

Showing up to 5 results
|